This demonstration page uses our WeatherBlox Daily Observations layout. Learn more.

Left ArrowRight Arrow

Hourly Observations for October 7, 2021

Temp ( °F °C ) Dew Point ( °F °C ) Humidity (%) Winds ( mph kmh ) Pressure ( in mb ) Visibility ( mi km ) Precip ( " mm )
12:14 am 00:14 Cloudy 71 21.7 68 20 90 90 VRB 5 7 30.11 1020 10 16 0.00 0.00
12:53 am 00:53 Cloudy 70 21.1 69 20.6 97 97 VRB 5 7 30.10 1019 10 16 0.00 0.00
1:53 am 01:53 Cloudy 70 21.1 68 20 93 93 ESE 5 7 30.10 1019 10 16 0.00 0.00
2:53 am 02:53 Cloudy 70 21.1 68 20 93 93 SSE 5 7 30.10 1019 10 16 0.00 0.00
3:53 am 03:53 Cloudy 70 21.1 68 20 93 93 ESE 3 6 30.09 1019 10 16 0.00 0.00
4:53 am 04:53 Cloudy 70 21.1 68 20 93 93 Calm 30.07 1018 10 16 0.00 0.00
5:53 am 05:53 Cloudy 70 21.1 68 20 93 93 Calm 30.09 1019 9 14 0.00 0.00
6:53 am 06:53 Cloudy with Mist and Fog 70 21.1 69 20.6 97 97 E 5 7 30.11 1020 3 5 0.01 0.25
7:53 am 07:53 Cloudy with Mist and Fog 70 21.1 69 20.6 97 97 Calm 30.12 1020 5 8 0.00 0.00
8:00 am 08:00 Cloudy 70 21.1 69 20.6 97 97 Calm 30.11 1020 10 16 0.00 0.00
8:53 am 08:53 Cloudy 71 21.7 69 20.6 94 94 Calm 30.13 1020 10 16 0.00 0.00
9:00 am 09:00 Cloudy 71 21.7 69 20.6 94 94 Calm 30.12 1020 10 16 0.00 0.00
9:26 am 09:26 Cloudy 72 22.2 69 20.6 91 91 VRB 3 6 30.13 1020 10 16 0.00 0.00
9:53 am 09:53 Cloudy 73 22.8 69 20.6 87 87 Calm 30.14 1021 10 16 0.00 0.00
10:00 am 10:00 Cloudy 74 23.3 70 21.1 88 88 Calm 30.13 1020 10 16 0.00 0.00
10:31 am 10:31 Cloudy 74 23.3 69 20.6 85 85 SSW 3 6 30.14 1021 10 16 0.00 0.00
10:53 am 10:53 Cloudy 74 23.3 68 20 82 82 SSE 5 7 30.14 1021 10 16 0.00 0.00
11:53 am 11:53 Cloudy 76 24.4 68 20 77 77 SSE 6 9 30.14 1021 10 16 0.00 0.00
12:00 pm 12:00 Cloudy 76 24.4 69 20.6 79 79 S 6 9 30.13 1020 10 16 0.00 0.00
12:41 pm 12:41 Cloudy with Heavy Rain 74 23.3 69 20.6 85 85 SE 5 7 30.13 1020 2 2 0.11 2.79
12:51 pm 12:51 Cloudy with Light Rain 73 23 70 21 89 89 SW 6 9 30.14 1021 3 5 0.14 3.56
12:53 pm 12:53 Cloudy with Light Rain 73 22.8 70 21.1 90 90 SSW 6 9 30.15 1021 5 8 0.14 3.56
1:00 pm 13:00 Cloudy with Light Rain 73 22.8 71 21.7 94 94 SSW 6 9 30.14 1021 8 13 0.00 0.00
1:14 pm 13:14 Mostly Cloudy 74 23.3 71 21.7 91 91 SSW 5 7 30.13 1020 10 16 0.00 0.00
1:53 pm 13:53 Mostly Cloudy with Light Rain 75 23.9 70 21.1 84 84 E 3 6 30.10 1019 10 16 0.00 0.00
2:36 pm 14:36 Mostly Cloudy 77 25 70 21.1 79 79 SE 6 9 30.07 1018 10 16 0.00 0.00
2:44 pm 14:44 Cloudy 77 25 69 20.6 77 77 SE 5 7 30.07 1018 10 16 0.00 0.00
2:53 pm 14:53 Cloudy 76 24.4 67 19.4 74 74 SSE 5 7 30.08 1019 10 16 0.00 0.00
3:53 pm 15:53 Cloudy with Light Rain 76 24.4 70 21.1 82 82 SW 7 11 30.07 1018 10 16 0.01 0.25
4:53 pm 16:53 Mostly Cloudy 75 23.9 70 21.1 84 84 S 8 13 30.06 1018 10 16 0.02 0.51
5:53 pm 17:53 Mostly Cloudy 75 23.9 69 20.6 82 82 SSW 5 7 30.05 1018 10 16 0.00 0.00
6:53 pm 18:53 Sunny 75 23.9 70 21.1 84 84 Calm 30.04 1017 10 16 0.00 0.00
7:53 pm 19:53 Partly Cloudy 74 23.3 70 21.1 88 88 NE 5 7 30.05 1018 10 16 0.00 0.00
8:53 pm 20:53 Cloudy 73 22.8 69 20.6 87 87 E 5 7 30.06 1018 10 16 0.00 0.00
9:48 pm 21:48 Cloudy 72 22 70 21 94 94 NE 3 6 30.06 1018 10 16 0.00 0.00
9:53 pm 21:53 Cloudy 72 22.2 69 20.6 91 91 Calm 30.07 1018 10 16 0.00 0.00
10:29 pm 22:29 Cloudy 71 21.7 69 20.6 94 94 NNE 3 6 30.07 1018 10 16 0.00 0.00
10:39 pm 22:39 Cloudy 71 21.7 69 20.6 94 94 ENE 3 6 30.07 1018 10 16 0.00 0.00
10:53 pm 22:53 Cloudy 72 22.2 69 20.6 91 91 E 5 7 30.07 1018 10 16 0.00 0.00
11:53 pm 23:53 Cloudy 71 21.7 68 20 90 90 E 3 6 30.07 1018 10 16 0.00 0.00

Powered by AerisWeather